[[{"header":{"parameterUnit":"m.s-1","parameterCategory":1,"la1":30.2991,"la2":30.254,"lo1":-89.0895,"lo2":-89.0444,"dy":0.0017,"dx":0.0017,"nx":28,"ny":28,"refTime":"2025-05-18T09:00:00:Z","depth":0,"parameterNumber":2,"parameterNumberName":"U-component_of_WINDS"},"data":[0,0,0,0,0,0,0,0,0,0,0,0,0,0,0,0,0,0,0,0,0,0,0,0,0,0,0,0,0,0,0,0,0,0,0,0,0,0,0,0,0,0,0,0,0,0,0,0,0,0,0,0,0,0,0,0,0,0,0.4594,0.4594,0,0.4571,0.4571,0.4571,0.4531,0.453,0.4529,0.4528,0.4505,0.4505,0.4506,0,0,0,0,0,0,0,0,0,0,0,0,0,0.4603,0.4603,0.4594,0.4594,0.4594,0.4571,0.4571,0.4571,0.4531,0.453,0.4529,0.4528,0.4505,0.4505,0.4506,0,0,0,0,0,0,0,0,0,0,0,0,0,0.4591,0.4603,0.4594,0.4571,0.4569,0.4571,0.4571,0.4571,0.4531,0.453,0.4529,0.4528,0.4505,0.4505,0.4506,0.4529,0,0,0.4506,0.4506,0,0,0,0,0,0,0,0,0.4592,0.4591,0.4575,0.4573,0.457,0.4553,0.4565,0.4557,0.4531,0.4545,0.4528,0.4527,0.4522,0.4521,0.4519,0.4528,0.4527,0.4506,0.4506,0.4506,0.4506,0,0,0,0,0,0,0,0.4593,0.4592,0.4585,0.4574,0.4572,0.4561,0.4559,0.4564,0.454,0.4544,0.4541,0.4539,0.4521,0.4519,0.4518,0.4527,0.4506,0.4506,0.4506,0.4506,0.4553,0.4554,0,0,0,0,0,0,0.4597,0.4593,0.4586,0.4584,0.4578,0.4562,0.4559,0.4559,0.454,0.4536,0.454,0.4537,0.4519,0.4518,0.4517,0.4542,0.4506,0.4506,0.4506,0.4551,0.4553,0.4554,0,0,0,0,0,0,0.4597,0.4597,0.4587,0.4588,0.4586,0.4563,0.4564,0.456,0.4558,0.4537,0.4533,0.4543,0.4518,0.4517,0.4526,0.4541,0.4506,0.4506,0.455,0.4552,0.4553,0.4594,0,0,0,0,0,0,0.4598,0.4597,0.4606,0.4588,0.4586,0.4596,0.4565,0.456,0.4558,0.4554,0.4538,0.4535,0.4517,0.4526,0.4526,0.4541,0.4507,0.4549,0.4551,0.4553,0.4591,0.4597,0.4601,0,0,0,0,0,0.4598,0.4619,0.4607,0.4606,0.4597,0.4597,0.4596,0.4575,0.456,0.4568,0.4554,0.4535,0.454,0.4527,0.4527,0.4542,0.4548,0.455,0.4553,0.4589,0.4595,0.4601,0,0,0,0,0,0,0.4639,0.4616,0.4603,0.4618,0.461,0.4591,0.4601,0.4584,0.458,0.4577,0.4551,0.4548,0.456,0.4552,0.4539,0.4563,0.454,0.4543,0.4568,0.4574,0.4579,0.4581,0.4507,0,0,0,0,0,0.465,0.4653,0.4632,0.4648,0.4645,0.4624,0.4623,0.4608,0.4599,0.4595,0.4582,0.4574,0.4573,0.4573,0.4572,0.459,0.4585,0.46,0.4605,0.4609,0.4612,0.4619,0.4625,0.4562,0.4562,0.4562,0,0,0.4673,0.466,0.4664,0.4656,0.4648,0.4651,0.4621,0.4626,0.4627,0.4596,0.4603,0.4594,0.4583,0.4596,0.4601,0.4589,0.4628,0.4612,0.4616,0.4616,0.4622,0.4628,0.4633,0.4564,0.4564,0.4564,0,0,0.4715,0.4706,0.4717,0.471,0.4698,0.4684,0.4686,0.4669,0.4662,0.4669,0.4645,0.4646,0.4646,0.4639,0.4635,0.4673,0.4655,0.4674,0.4701,0.4708,0.4713,0.4718,0.473,0.4735,0.4676,0.4676,0.4676,0,0.4744,0.4748,0.4726,0.4731,0.4728,0.4699,0.471,0.4704,0.4692,0.4691,0.4678,0.4676,0.4666,0.4677,0.4686,0.4685,0.4686,0.4675,0.4714,0.4718,0.4722,0.4734,0.4739,0.4679,0.4678,0.4678,0.4678,0,0.4784,0.4787,0.4797,0.4786,0.4784,0.4792,0.4771,0.4772,0.4757,0.4744,0.4751,0.4738,0.4733,0.4735,0.472,0.4743,0.4736,0.4719,0.4696,0.4731,0.4741,0.4745,0.4682,0.4681,0.468,0.468,0,0,0.4851,0.4827,0.4831,0.4825,0.4809,0.4811,0.4818,0.4812,0.4813,0.4806,0.481,0.481,0.4794,0.479,0.4774,0.4781,0.4811,0.4763,0.4763,0.4772,0.4833,0.4845,0.4851,0.4799,0.4799,0.48,0.4834,0,0.4889,0.4899,0.4879,0.4893,0.4895,0.4867,0.4873,0.4864,0.4852,0.4851,0.4838,0.4838,0.4817,0.4814,0.482,0.4806,0.4823,0.4803,0.4802,0.4802,0.4804,0.4856,0.4869,0.4901,0.4838,0.4839,0.4839,0,0.4934,0.4929,0.4943,0.4926,0.4926,0.4931,0.4924,0.4924,0.4913,0.4903,0.4898,0.488,0.4884,0.4863,0.4868,0.4856,0.4854,0.4847,0.4848,0.4846,0.4822,0.4855,0.4911,0.4916,0.4845,0.4845,0.4845,0,0.498,0.4977,0.4984,0.498,0.496,0.4965,0.4956,0.4944,0.4942,0.4935,0.4933,0.4928,0.4925,0.4921,0.4901,0.4887,0.4909,0.4886,0.49,0.4901,0.4906,0.4905,0.4961,0.4906,0.4906,0.4906,0.4906,0,0.5024,0.5034,0.5004,0.5009,0.5019,0.4996,0.5006,0.4995,0.4984,0.4986,0.4962,0.4965,0.4939,0.4938,0.4923,0.4929,0.4928,0.492,0.4916,0.4922,0.4923,0.492,0.4916,0.4908,0.4907,0.4907,0.4907,0,0.5076,0.5058,0.5064,0.5044,0.504,0.5048,0.5031,0.5034,0.502,0.5023,0.5022,0.5,0.4998,0.4978,0.4972,0.4962,0.4973,0.4965,0.4977,0.4974,0.4989,0.4988,0.5044,0.505,0.4993,0.4993,0.4994,0,0.5105,0.5112,0.5093,0.5092,0.5085,0.5084,0.5081,0.5059,0.5057,0.5044,0.5049,0.5044,0.504,0.5037,0.5021,0.5016,0.5006,0.5027,0.5005,0.5011,0.5005,0.5005,0.5004,0.5031,0.5032,0.5032,0.5033,0,0.5157,0.5147,0.5144,0.5137,0.5135,0.5128,0.5121,0.5122,0.5096,0.5095,0.5093,0.5089,0.5082,0.5078,0.5069,0.5061,0.5042,0.504,0.5042,0.5048,0.5054,0.505,0.4988,0.5038,0.5038,0.5037,0.5037,0.5037,0.5197,0.5202,0.5188,0.5185,0.5177,0.517,0.5172,0.5158,0.5156,0.5148,0.5135,0.5134,0.5121,0.5108,0.5101,0.5099,0.5089,0.5093,0.5094,0.5095,0.5098,0.5055,0.5098,0.5098,0.5098,0.5098,0.5097,0,0.5247,0.5237,0.5235,0.5224,0.5222,0.5205,0.5195,0.5194,0.5194,0.5184,0.5179,0.5176,0.5171,0.5154,0.5148,0.515,0.5141,0.5149,0.5148,0.5146,0.5109,0.5106,0.5156,0.5156,0.5156,0.5156,0.5156,0.5156,0.5273,0.5278,0.5267,0.5268,0.5258,0.5256,0.5252,0.5245,0.5237,0.5234,0.523,0.5219,0.5206,0.5199,0.5194,0.5189,0.5187,0.5197,0.5189,0.5155,0.5149,0.5143,0.5141,0.5197,0.5197,0.5227,0.5227,0.5227]},{"header":{"parameterUnit":"m.s-1","parameterCategory":1,"la1":30.2991,"la2":30.254,"lo1":-89.0895,"lo2":-89.0444,"dy":0.0017,"dx":0.0017,"nx":28,"ny":28,"refTime":"2025-05-18T09:00:00:Z","depth":0,"parameterNumber":3,"parameterNumberName":"V-component_of_WINDS"},"data":[0,0,0,0,0,0,0,0,0,0,0,0,0,0,0,0,0,0,0,0,0,0,0,0,0,0,0,0,0,0,0,0,0,0,0,0,0,0,0,0,0,0,0,0,0,0,0,0,0,0,0,0,0,0,0,0,0,0,6.527,6.5271,0,6.5347,6.5348,6.5348,6.5279,6.5277,6.5274,6.5271,6.5343,6.5347,6.5352,0,0,0,0,0,0,0,0,0,0,0,0,0,6.5056,6.5061,6.527,6.5271,6.5272,6.5347,6.5348,6.5349,6.528,6.5277,6.5273,6.527,6.5341,6.5347,6.5352,0,0,0,0,0,0,0,0,0,0,0,0,0,6.5142,6.5062,6.527,6.5247,6.5246,6.5346,6.5348,6.5349,6.5281,6.5276,6.5272,6.5268,6.534,6.5346,6.5353,6.5478,0,0,6.5373,6.5376,0,0,0,0,0,0,0,0,6.5138,6.515,6.5249,6.5249,6.5247,6.5299,6.5298,6.5392,6.5282,6.5267,6.5271,6.5266,6.5331,6.5338,6.5362,6.5481,6.5484,6.5374,6.5378,6.5381,6.5383,0,0,0,0,0,0,0,6.5132,6.5147,6.53,6.5251,6.525,6.523,6.5238,6.5316,6.5321,6.5268,6.5263,6.5274,6.533,6.5355,6.5363,6.5485,6.5374,6.538,6.5384,6.5387,6.5709,6.5713,0,0,0,0,0,0,6.5129,6.5142,6.5298,6.5302,6.5181,6.5237,6.5246,6.5287,6.532,6.5322,6.5277,6.527,6.5346,6.5355,6.5365,6.5513,6.5381,6.5387,6.5391,6.5705,6.571,6.5715,0,0,0,0,0,0,6.5125,6.5144,6.5295,6.5221,6.5239,6.5246,6.5292,6.529,6.5316,6.5327,6.5327,6.5303,6.5343,6.5356,6.545,6.5514,6.539,6.5396,6.5699,6.5706,6.5712,6.5809,0,0,0,0,0,0,6.5119,6.5143,6.5192,6.5223,6.5243,6.5381,6.5296,6.5295,6.5329,6.532,6.5351,6.5352,6.5341,6.5441,6.5457,6.5521,6.5402,6.5693,6.5702,6.571,6.5801,6.5819,6.5834,0,0,0,0,0,6.5112,6.5216,6.5195,6.5214,6.5306,6.5385,6.5396,6.5383,6.5334,6.5383,6.539,6.5351,6.5505,6.5451,6.5469,6.5536,6.5689,6.57,6.571,6.5793,6.5815,6.5834,0,0,0,0,0,0,6.519,6.5219,6.5197,6.5314,6.5348,6.5373,6.5434,6.5407,6.5453,6.5443,6.5422,6.543,6.553,6.5542,6.5482,6.5658,6.5589,6.5603,6.5646,6.5667,6.5684,6.5678,6.5407,0,0,0,0,0,6.5222,6.5286,6.5307,6.5408,6.5426,6.5428,6.5462,6.5449,6.5482,6.5495,6.5509,6.554,6.5595,6.5632,6.5683,6.5802,6.5807,6.5857,6.5874,6.5887,6.59,6.5961,6.5983,6.5748,6.5748,6.5748,0,0,6.5286,6.531,6.5352,6.5424,6.5449,6.5514,6.544,6.5512,6.5559,6.5505,6.5596,6.5607,6.564,6.5748,6.5795,6.5761,6.5966,6.59,6.5911,6.5916,6.5974,6.5996,6.6016,6.5755,6.5754,6.5753,0,0,6.5436,6.5462,6.5549,6.5575,6.5614,6.5614,6.5635,6.5665,6.5671,6.5762,6.5722,6.5776,6.5872,6.5898,6.5923,6.6082,6.6048,6.6099,6.6187,6.6247,6.6266,6.6282,6.6337,6.6357,6.6112,6.6112,6.6112,0,6.5511,6.561,6.5596,6.5671,6.5703,6.5659,6.5745,6.5771,6.5823,6.5845,6.5807,6.5925,6.5945,6.6056,6.6095,6.6118,6.6139,6.6095,6.6265,6.6281,6.6296,6.6348,6.6369,6.6118,6.6117,6.6116,6.6116,0,6.5699,6.5768,6.5832,6.5887,6.5926,6.6006,6.6002,6.6043,6.6026,6.6029,6.6121,6.6143,6.6197,6.6223,6.6206,6.6332,6.6309,6.6268,6.6198,6.6324,6.6373,6.6393,6.6126,6.6124,6.6122,6.6121,0,0,6.5901,6.5947,6.5971,6.5994,6.6033,6.6085,6.6162,6.6217,6.6252,6.6289,6.6351,6.6433,6.6395,6.6424,6.641,6.6463,6.6586,6.6415,6.6415,6.6445,6.6723,6.6753,6.6776,6.6564,6.6568,6.6571,6.6719,0,6.6052,6.6188,6.6177,6.6305,6.6367,6.6326,6.6392,6.6422,6.6427,6.6478,6.6482,6.654,6.6487,6.6504,6.6555,6.656,6.6641,6.6549,6.6619,6.6622,6.6611,6.6802,6.6834,6.6974,6.6739,6.6742,6.6744,0,6.6246,6.6293,6.6428,6.6457,6.6482,6.6543,6.6591,6.6642,6.6674,6.6673,6.6705,6.6682,6.6756,6.6686,6.6786,6.6724,6.6752,6.6759,6.6764,6.6769,6.669,6.6811,6.7018,6.7039,6.6774,6.6772,6.677,0,6.6379,6.6474,6.6567,6.6589,6.6625,6.6668,6.6685,6.6713,6.6746,6.6788,6.6809,6.6859,6.6885,6.6923,6.6912,6.6862,6.7015,6.6944,6.7014,6.7015,6.7047,6.7045,6.7261,6.7068,6.7067,6.7067,6.7066,0,6.6548,6.6631,6.6627,6.6684,6.6775,6.6761,6.685,6.6861,6.6887,6.6943,6.6909,6.6962,6.6945,6.6996,6.6988,6.7072,6.7084,6.7084,6.7081,6.7087,6.7087,6.7104,6.7093,6.7072,6.7071,6.707,6.7069,0,6.6711,6.6711,6.6809,6.6836,6.6845,6.6911,6.6932,6.6984,6.6986,6.7058,6.7073,6.7076,6.7134,6.7128,6.7193,6.7187,6.729,6.7276,6.728,6.7277,6.7347,6.734,6.758,6.761,6.7399,6.7401,6.7403,0,6.6818,6.6882,6.6916,6.6952,6.6972,6.7031,6.7066,6.7053,6.7089,6.713,6.7177,6.7233,6.7277,6.7371,6.7377,6.7426,6.7412,6.7492,6.7418,6.7422,6.7411,6.7407,6.7412,6.7506,6.7509,6.7511,6.7512,0,6.7008,6.7005,6.7058,6.711,6.7153,6.7193,6.7229,6.726,6.725,6.7292,6.7353,6.7387,6.7454,6.7509,6.7555,6.7569,6.7539,6.7536,6.7554,6.756,6.756,6.756,6.7319,6.753,6.7528,6.7527,6.7526,6.7525,6.7146,6.72,6.7232,6.7291,6.7317,6.7352,6.7402,6.7411,6.7462,6.7516,6.7505,6.7573,6.76,6.766,6.7679,6.7729,6.7699,6.7727,6.7734,6.774,6.7748,6.7553,6.7738,6.7737,6.7737,6.7736,6.7736,0,6.7333,6.7352,6.7406,6.7459,6.7504,6.7474,6.7512,6.7551,6.7612,6.7642,6.7687,6.7755,6.7808,6.7818,6.7868,6.7907,6.7894,6.792,6.7916,6.792,6.7772,6.7751,6.7929,6.7929,6.7929,6.7929,6.7929,6.7929,6.7436,6.7525,6.7526,6.7627,6.7644,6.7712,6.7736,6.7767,6.779,6.7869,6.7914,6.7921,6.7942,6.7993,6.8039,6.8041,6.806,6.8091,6.8087,6.7949,6.793,6.7912,6.7891,6.8096,6.8096,6.823,6.8231,6.8232]}]]